Weather reports worldwide

Advertisment
Coningsby, United Kingdom (3391): temperature & dewpoint: 14.02.2018 05:00:00 - 20.02.2018 05:00:00 (GMT)Coningsby, United Kingdom (3391): temperature -20cm & temperature -100cm: 14.02.2018 05:00:00 - 20.02.2018 05:00:00 (GMT)Coningsby, United Kingdom (3391): wind speed & gusts: 14.02.2018 05:00:00 - 20.02.2018 05:00:00 (GMT)Coningsby, United Kingdom (3391): wind direction: 14.02.2018 05:00:00 - 20.02.2018 05:00:00 (GMT)Coningsby, United Kingdom (3391): reduced air pressure: 14.02.2018 05:00:00 - 20.02.2018 05:00:00 (GMT)Coningsby, United Kingdom (3391): visibility: 14.02.2018 05:00:00 - 20.02.2018 05:00:00 (GMT)Coningsby, United Kingdom (3391): precipitation: 14.02.2018 05:00:00 - 20.02.2018 05:00:00 (GMT)
Date & Time tt [°C] td [°C] tt -20cm [°C] tt -100cm [°C] ff [km/h] ff [kn] fx [km/h] fx [kn] dd ppp [hPa] vv [km] rr [mm]
20.02.2018 05:00:00 6,6 6,3 - - 5 3 - - WNW 1018,0 3,0 0,2
20.02.2018 04:00:00 6,6 6,3 - - 4 2 - - NNW 1017,9 2,5 0,0
20.02.2018 03:00:00 6,7 6,3 - - 2 1 - - ENE 1017,8 3,0 0,0
20.02.2018 02:00:00 6,7 6,4 - - 4 2 - - NE 1017,6 3,0 0,0
20.02.2018 01:00:00 6,9 6,6 - - 5 3 - - NNE 1017,6 3,0 0,2
20.02.2018 00:00:00 7,1 6,7 - - 9 5 - - N 1017,7 3,2 0,4
19.02.2018 23:00:00 7,3 6,9 - - 5 3 - - N 1017,3 2,0 0,2
19.02.2018 22:00:00 7,5 7,1 - - 8 4 - - NNW 1016,8 3,0 0,0
19.02.2018 21:00:00 7,7 7,2 - - 5 3 - - NNE 1016,7 7 0,0
19.02.2018 20:00:00 7,9 7,4 - - 5 3 - - N 1016,7 7 0,0
19.02.2018 19:00:00 8,1 7,7 - - 8 4 - - N 1016,6 5 0,0
19.02.2018 18:00:00 8,4 7,8 - - 9 5 - - NNE 1016,2 6 0,2
19.02.2018 17:00:00 9,5 8,9 - - 9 5 - - N 1015,8 4,5 0,0
19.02.2018 16:00:00 9,9 9,1 - - 13 7 - - NNW 1015,4 5 0,0
19.02.2018 15:00:00 9,9 9,2 - - 11 6 - - NNW 1015,2 5 0,0
19.02.2018 14:00:00 10,0 9,3 - - 15 8 - - NNW 1015,0 7 0,2
19.02.2018 13:00:00 9,6 9,2 - - 13 7 - - NNW 1015,1 3,5 0,0
19.02.2018 12:00:00 9,1 8,7 - - 13 7 - - WNW 1015,2 3,2 0,2
19.02.2018 11:00:00 8,4 8,1 - - 11 6 - - W 1015,3 3,0 0,4
19.02.2018 10:00:00 7,4 7,2 - - 8 4 - - WSW 1015,4 1,8 0,4
19.02.2018 09:00:00 6,2 6,0 4,0 6,2 5 3 - - SW 1015,5 1,6 0,4
19.02.2018 08:00:00 5,6 5,5 - - 9 5 - - SSW 1015,6 1,6 0,0
19.02.2018 07:00:00 5,5 5,3 - - 9 5 - - SSW 1015,7 1,3 0,6
19.02.2018 06:00:00 5,4 5,1 - - 9 5 - - S 1015,7 1,8 0,2
19.02.2018 05:00:00 5,3 5,0 - - 11 6 - - SSW 1015,9 2,0 0,2
19.02.2018 04:00:00 5,4 4,9 - - 13 7 - - S 1016,2 3,5 0,0
19.02.2018 03:00:00 5,3 4,7 - - 9 5 - - S 1016,8 6 0,0
19.02.2018 02:00:00 5,3 4,6 - - 11 6 - - S 1017,4 7 0,0
19.02.2018 01:00:00 5,3 4,6 - - 9 5 - - S 1017,9 7 0,4
19.02.2018 00:00:00 5,2 4,5 - - 9 5 - - S 1018,6 7 0,0
18.02.2018 23:00:00 5,6 4,4 - - 11 6 - - S 1018,6 9 0,0
18.02.2018 22:00:00 5,9 4,5 - - 13 7 - - S 1019,0 10 0,0
18.02.2018 21:00:00 6,2 4,6 - - 13 7 - - S 1019,4 10 0,0
18.02.2018 20:00:00 6,4 4,9 - - 11 6 - - S 1019,7 10 0,0
18.02.2018 19:00:00 5,6 4,8 - - 5 3 - - SE 1019,9 8 0,0
18.02.2018 18:00:00 5,5 4,5 - - 5 3 - - E 1020,2 10 0,0
18.02.2018 17:00:00 5,5 4,2 - - 5 3 - - E 1020,2 10 0,0
18.02.2018 16:00:00 7,0 4,9 - - 8 4 - - SSE 1020,6 10 0,0
18.02.2018 15:00:00 7,0 4,3 - - 13 7 - - S 1021,1 10 0,0
18.02.2018 14:00:00 5,3 4,3 - - 13 7 - - S 1021,1 10 0,0
18.02.2018 13:00:00 4,1 3,5 - - 13 7 - - S 1021,7 3,5 0,0
18.02.2018 12:00:00 4,2 3,7 - - 16 9 - - S 1021,6 2,0 0,0
18.02.2018 11:00:00 4,0 3,8 - - 11 6 - - S 1022,1 2,0 0,0
18.02.2018 10:00:00 3,2 3,0 - - 11 6 - - S 1021,6 0,6 0,0
18.02.2018 09:00:00 1,1 1,0 3,7 6,2 5 3 - - SE 1022,1 1,8 0,0
18.02.2018 08:00:00 0,5 0,5 - - 8 4 - - SE 1022,4 0,3 0,0
18.02.2018 07:00:00 0,6 0,4 - - 9 5 - - S 1022,5 0,3 0,0
18.02.2018 06:00:00 -0,8 -1,5 - - 9 5 - - SE 1021,8 3,5 0,0
18.02.2018 05:00:00 -0,7 -1,1 - - 8 4 - - ESE 1021,4 4,5 0,0
18.02.2018 04:00:00 0,0 -0,4 - - 5 3 - - ESE 1021,9 6 0,0
18.02.2018 03:00:00 -0,5 -1,2 - - 8 4 - - ESE 1022,1 6 0,0
18.02.2018 02:00:00 0,4 -0,1 - - 5 3 - - ESE 1022,3 10 0,0
18.02.2018 01:00:00 -0,1 -1,2 - - 8 4 - - SSE 1022,1 10 0,0
18.02.2018 00:00:00 -0,1 -0,8 - - 8 4 - - SE 1022,2 10 0,0
17.02.2018 23:00:00 0,8 0,1 - - 4 2 - - S 1022,1 10 0,0
17.02.2018 22:00:00 1,8 0,6 - - 11 6 - - SSW 1022,0 10 0,0
17.02.2018 21:00:00 1,7 0,7 - - 8 4 - - S 1022,0 10 0,0
17.02.2018 20:00:00 2,9 1,5 - - 9 5 - - SSW 1021,9 10 0,0
17.02.2018 19:00:00 4,1 2,0 - - 9 5 - - SSE 1021,5 10 0,0
17.02.2018 18:00:00 6,1 3,1 - - 11 6 - - SSW 1021,3 10 0,0
17.02.2018 17:00:00 7,0 3,4 - - 13 7 - - SSW 1020,9 10 0,0
17.02.2018 16:00:00 7,9 3,3 - - 16 9 - - SSW 1020,8 10 0,0
17.02.2018 15:00:00 7,4 3,7 - - 15 8 - - SSW 1020,9 10 0,0
17.02.2018 14:00:00 6,9 3,8 - - 18 10 - - SSW 1021,1 10 0,2
17.02.2018 13:00:00 8,4 3,4 - - 18 10 - - SSW 1021,3 10 0,0
17.02.2018 12:00:00 5,6 2,8 - - 18 10 - - S 1021,5 10 0,0
17.02.2018 11:00:00 4,1 2,3 - - 15 8 - - S 1021,4 10 0,0
17.02.2018 10:00:00 2,7 1,5 - - 15 8 - - S 1021,2 10 0,0
17.02.2018 09:00:00 0,9 0,1 3,7 6,4 8 4 - - S 1021,2 8 0,0
17.02.2018 08:00:00 0,1 -0,3 - - 9 5 - - ESE 1021,3 7 0,0
17.02.2018 07:00:00 -1,1 -1,8 - - 8 4 - - SE 1021,2 6 0,0
17.02.2018 06:00:00 -1,9 -2,4 - - 8 4 - - S 1020,9 6 0,0
17.02.2018 05:00:00 -1,7 -2,5 - - 11 6 - - SSE 1021,2 10 0,0
17.02.2018 04:00:00 -1,5 -2,5 - - 5 3 - - E 1021,5 10 0,0
17.02.2018 03:00:00 -0,7 -1,8 - - 8 4 - - ESE 1021,7 10 0,0
17.02.2018 02:00:00 -1,2 -2,3 - - 9 5 - - SSE 1022,1 10 0,0
17.02.2018 01:00:00 -0,9 -2,4 - - 5 3 - - SSE 1022,2 10 0,0
17.02.2018 00:00:00 -0,9 -2,1 - - 5 3 - - SSE 1022,5 10 0,0
16.02.2018 23:00:00 0,3 -1,0 - - 9 5 - - S 1022,8 10 0,0
16.02.2018 22:00:00 0,1 -1,2 - - 9 5 - - SE 1022,8 10 0,0
16.02.2018 21:00:00 1,6 -0,2 - - 8 4 - - SE 1022,8 10 0,0
16.02.2018 20:00:00 2,1 0,3 - - 8 4 - - SSE 1022,9 10 0,0
16.02.2018 19:00:00 3,2 0,8 - - 11 6 - - S 1023,1 10 0,0
16.02.2018 18:00:00 3,1 1,3 - - 8 4 - - S 1023,4 10 0,0
16.02.2018 17:00:00 5,2 1,5 - - 8 4 - - SSW 1023,2 10 0,0
16.02.2018 16:00:00 7,3 1,4 - - 16 9 - - SW 1023,2 10 0,0
16.02.2018 15:00:00 8,2 0,4 - - 15 8 - - WSW 1023,4 10 0,0
16.02.2018 14:00:00 8,6 -0,3 - - 18 10 - - SW 1023,5 10 0,0
16.02.2018 13:00:00 8,1 1,3 - - 18 10 - - SW 1023,8 10 0,0
16.02.2018 12:00:00 7,7 0,0 - - 21 11 - - WSW 1024,2 10 0,0
16.02.2018 11:00:00 6,0 1,0 - - 21 11 - - WSW 1024,0 10 0,0
16.02.2018 10:00:00 4,0 0,2 - - 11 6 - - WSW 1023,4 10 0,0
16.02.2018 09:00:00 1,5 -0,7 4,0 6,4 16 9 - - SW 1023,0 10 0,0
16.02.2018 08:00:00 -1,2 -2,7 - - 8 4 - - S 1022,5 10 0,0
16.02.2018 07:00:00 -0,7 -2,5 - - 13 7 - - WSW 1021,6 10 0,0
16.02.2018 06:00:00 -0,7 -2,6 - - 11 6 - - WSW 1021,2 10 0,0
16.02.2018 05:00:00 -0,6 -2,5 - - 15 8 - - SW 1020,6 10 0,0
16.02.2018 04:00:00 1,1 -1,7 - - 16 9 - - SW 1020,0 10 0,0
16.02.2018 03:00:00 0,9 -1,2 - - 18 10 - - SW 1019,2 10 0,0
16.02.2018 02:00:00 1,0 -1,5 - - 18 10 - - WSW 1018,5 10 0,0
16.02.2018 01:00:00 1,4 -0,9 - - 18 10 - - WSW 1017,8 10 0,0
16.02.2018 00:00:00 1,9 -0,7 - - 22 12 - - WSW 1016,9 10 0,0
15.02.2018 23:00:00 1,8 -1,0 - - 16 9 - - SW 1016,2 10 0,0
15.02.2018 22:00:00 2,6 -1,2 - - 21 11 - - WSW 1015,2 10 0,0
15.02.2018 21:00:00 2,8 -1,5 - - 22 12 - - WSW 1014,3 10 0,0
15.02.2018 20:00:00 2,8 -1,9 - - 16 9 - - SW 1013,6 10 0,0
15.02.2018 19:00:00 3,8 -1,8 - - 21 11 - - WSW 1012,7 10 0,0
15.02.2018 18:00:00 4,7 -2,2 - - 24 13 - - WSW 1011,7 10 0,0
15.02.2018 17:00:00 6,1 -3,8 - - 28 15 - - WSW 1010,6 10 0,0
15.02.2018 16:00:00 7,6 -3,9 - - 29 16 52 28 WSW 1009,9 10 0,0
15.02.2018 15:00:00 7,8 -6,6 - - 39 21 57 31 W 1009,1 10 0,0
15.02.2018 14:00:00 8,3 -6,4 - - 41 22 61 33 W 1008,5 10 0,0
15.02.2018 13:00:00 8,0 -3,9 - - 41 22 59 32 WSW 1007,7 10 0,0
15.02.2018 12:00:00 8,4 -0,7 - - 37 20 52 28 WSW 1006,8 10 0,0
15.02.2018 11:00:00 7,5 1,8 - - 34 18 48 26 WSW 1006,3 10 0,0
15.02.2018 10:00:00 6,8 3,0 - - 28 15 - - WSW 1005,4 10 0,0
15.02.2018 09:00:00 5,8 3,3 4,0 6,4 21 11 - - WSW 1004,0 10 0,0
15.02.2018 08:00:00 5,3 3,0 - - 21 11 - - WSW 1002,8 10 0,0
15.02.2018 07:00:00 3,8 3,3 - - 11 6 - - SW 1001,7 10 0,0
15.02.2018 06:00:00 5,3 4,4 - - 18 10 - - SW 1000,5 10 0,0
15.02.2018 05:00:00 5,0 4,6 - - 18 10 - - SSW 999,6 10 0,0
15.02.2018 04:00:00 5,2 4,5 - - 16 9 - - SSW 999,0 10 0,0
15.02.2018 03:00:00 4,3 4,0 - - 9 5 - - SSW 999,0 10 0,0
15.02.2018 02:00:00 6,1 5,5 - - 15 8 - - SSW 999,0 10 0,0
15.02.2018 01:00:00 6,1 5,3 - - 24 13 - - S 998,3 10 0,0
15.02.2018 00:00:00 5,6 4,9 - - 24 13 - - S 998,3 10 0,0
14.02.2018 23:00:00 5,1 4,6 - - 26 14 - - S 998,2 9 0,0
14.02.2018 22:00:00 4,8 4,0 - - 29 16 50 27 S 998,5 4,0 0,4
14.02.2018 21:00:00 4,4 3,6 - - 35 19 55 30 S 998,2 8 0,6
14.02.2018 20:00:00 4,2 3,3 - - 35 19 52 28 S 998,7 6 2,0
14.02.2018 19:00:00 4,4 2,7 - - 35 19 52 28 S 999,2 10 0,0
14.02.2018 18:00:00 4,1 2,8 - - 35 19 59 32 S 999,4 10 0,0
14.02.2018 17:00:00 4,2 2,3 - - 37 20 65 35 S 1000,4 10 0,4
14.02.2018 16:00:00 4,5 2,2 - - 34 18 59 32 S 1000,8 7 0,6
14.02.2018 15:00:00 5,2 1,4 - - 39 21 61 33 S 1001,1 10 0,0
14.02.2018 14:00:00 5,5 1,0 - - 35 19 61 33 S 1001,4 10 0,0
14.02.2018 13:00:00 5,6 0,8 - - 34 18 50 27 S 1002,2 10 0,0
14.02.2018 12:00:00 5,1 1,2 - - 29 16 - - S 1003,0 10 0,0
14.02.2018 11:00:00 4,0 0,9 - - 26 14 46 25 S 1003,7 10 0,0
14.02.2018 10:00:00 2,1 1,3 - - 28 15 - - S 1004,9 8 -
14.02.2018 09:00:00 1,4 1,0 3,7 6,4 21 11 - - S 1004,9 4,0 0,0
14.02.2018 08:00:00 0,5 0,5 - - 15 8 - - S 1005,5 0,7 0,0
14.02.2018 07:00:00 0,2 0,2 - - 11 6 - - S 1005,5 0,6 0,0
14.02.2018 06:00:00 0,2 0,2 - - 11 6 - - S 1005,7 0,3 0,0
14.02.2018 05:00:00 -1,5 -1,8 - - 8 4 - - SSE 1005,6 0,3 0,0

tt = temperature
td = dewpoint
tt -20cm = temperature -20cm
tt -100cm = temperature -100cm
ff = wind speed
fx = gusts
dd = wind direction
ppp = reduced air pressure
vv = visibility
rr = precipitation

Next stations